When you browse on this site, cookies collect data to enhance your experience and personalize the content and advertising you see.
Visit our Privacy Policy to learn more. By continuing to use the site, you agree to this use of cookies and data.
  • In Portugal
  • List of Countries
  • For 7 days
  • Water Temperature
  • Weather Map
  • Weather Widgets
  • user-avatar
    Login

    Hourly Weather Klupki

    Today, 20 September, Friday

    Time Temperature Precipitation Wind Pressure Humidity
    00:00 +3°C° 0 mm 2 mps 723 mmHg 92%
    01:00 +3°C° 0 mm 2 mps 724 mmHg 92%
    02:00 +3°C° 0 mm 2 mps 723 mmHg 92%
    03:00 +3°C° 0 mm 2 mps 723 mmHg 93%
    04:00 +3°C° 0 mm 2 mps 723 mmHg 93%
    05:00 +3°C° 0 mm 2 mps 723 mmHg 91%
    06:00 +4°C° 0 mm 2 mps 724 mmHg 90%
    07:00 +5°C° 0 mm 2 mps 724 mmHg 87%
    08:00 +6°C° 0.1 mm 2 mps 724 mmHg 81%
    09:00 +8°C° 0.1 mm 3 mps 724 mmHg 75%
    10:00 +10°C° 0.1 mm 3 mps 724 mmHg 68%
    11:00 +10°C° 0.2 mm 4 mps 724 mmHg 64%
    12:00 +11°C° 0.2 mm 4 mps 724 mmHg 59%
    13:00 +12°C° 0.2 mm 4 mps 724 mmHg 55%
    14:00 +11°C° 0.1 mm 4 mps 724 mmHg 58%
    15:00 +11°C° 0.1 mm 3 mps 723 mmHg 62%
    16:00 +11°C° 0.1 mm 3 mps 723 mmHg 65%
    17:00 +9°C° 0 mm 2 mps 723 mmHg 71%
    18:00 +7°C° 0 mm 2 mps 723 mmHg 77%
    19:00 +7°C° 0 mm 1 mps 723 mmHg 84%
    20:00 +7°C° 0 mm 1 mps 723 mmHg 85%
    21:00 +6°C° 0 mm 1 mps 723 mmHg 85%
    22:00 +6°C° 0 mm 1 mps 723 mmHg 86%
    23:00 +5°C° 0 mm 2 mps 724 mmHg 87%

    Tomorrow, 21 September, Saturday

    Time Temperature Precipitation Wind Pressure Humidity
    00:00 +5°C° 0 mm 2 mps 724 mmHg 88%
    01:00 +4°C° 0 mm 2 mps 724 mmHg 88%
    02:00 +4°C° 0 mm 2 mps 723 mmHg 89%
    03:00 +4°C° 0 mm 2 mps 723 mmHg 89%
    04:00 +5°C° 0 mm 1 mps 723 mmHg 89%
    05:00 +6°C° 0 mm 1 mps 723 mmHg 86%
    06:00 +7°C° 0 mm 1 mps 724 mmHg 82%
    07:00 +8°C° 0 mm 1 mps 724 mmHg 79%
    08:00 +10°C° 0 mm 1 mps 724 mmHg 70%
    09:00 +12°C° 0 mm 1 mps 724 mmHg 62%
    10:00 +15°C° 0 mm 1 mps 724 mmHg 53%
    11:00 +16°C° 0 mm 1 mps 724 mmHg 51%
    12:00 +18°C° 0 mm 1 mps 724 mmHg 49%
    13:00 +18°C° 0 mm 1 mps 723 mmHg 48%
    14:00 +18°C° 0 mm 1 mps 723 mmHg 51%
    15:00 +18°C° 0 mm 1 mps 723 mmHg 55%
    16:00 +16°C° 0 mm 1 mps 722 mmHg 59%
    17:00 +14°C° 0 mm 1 mps 722 mmHg 66%
    18:00 +12°C° 0 mm 1 mps 722 mmHg 73%
    19:00 +10°C° 0 mm 1 mps 722 mmHg 81%
    20:00 +10°C° 0 mm 1 mps 722 mmHg 82%
    21:00 +9°C° 0 mm 1 mps 722 mmHg 83%
    22:00 +9°C° 0 mm 1 mps 722 mmHg 84%
    23:00 +9°C° 0 mm 1 mps 722 mmHg 84%

    Day after tomorrow, 22 September, Sunday

    Time Temperature Precipitation Wind Pressure Humidity
    00:00 +8°C° 0 mm 1 mps 721 mmHg 84%
    01:00 +8°C° 0 mm 1 mps 721 mmHg 84%
    02:00 +8°C° 0 mm 1 mps 721 mmHg 83%
    03:00 +8°C° 0 mm 1 mps 721 mmHg 83%
    04:00 +8°C° 0 mm 1 mps 721 mmHg 82%
    05:00 +8°C° 0 mm 1 mps 721 mmHg 79%
    06:00 +9°C° 0 mm 1 mps 721 mmHg 76%
    07:00 +10°C° 0 mm 1 mps 721 mmHg 73%
    08:00 +13°C° 0 mm 1 mps 721 mmHg 66%
    09:00 +15°C° 0 mm 1 mps 721 mmHg 58%
    10:00 +17°C° 0 mm 0 mps 721 mmHg 51%
    11:00 +20°C° 0 mm 1 mps 721 mmHg 49%
    12:00 +21°C° 0 mm 1 mps 720 mmHg 47%
    13:00 +22°C° 0 mm 1 mps 720 mmHg 45%
    14:00 +21°C° 0 mm 1 mps 720 mmHg 50%
    15:00 +21°C° 0 mm 1 mps 719 mmHg 54%
    16:00 +20°C° 0 mm 1 mps 718 mmHg 58%
    17:00 +18°C° 0 mm 1 mps 718 mmHg 65%
    18:00 +14°C° 0 mm 1 mps 718 mmHg 71%
    19:00 +12°C° 0 mm 1 mps 718 mmHg 78%
    20:00 +12°C° 0 mm 1 mps 718 mmHg 78%
    21:00 +11°C° 0 mm 1 mps 718 mmHg 78%
    22:00 +10°C° 0 mm 1 mps 717 mmHg 78%
    23:00 +10°C° 0 mm 1 mps 717 mmHg 77%

    23 September, Monday

    Time Temperature Precipitation Wind Pressure Humidity
    00:00 +10°C° 0 mm 1 mps 717 mmHg 76%
    01:00 +10°C° 0 mm 1 mps 717 mmHg 75%
    02:00 +10°C° 0 mm 1 mps 716 mmHg 71%
    03:00 +11°C° 0 mm 1 mps 716 mmHg 67%
    04:00 +11°C° 0 mm 1 mps 716 mmHg 64%
    05:00 +12°C° 0 mm 1 mps 716 mmHg 63%
    06:00 +12°C° 0 mm 1 mps 715 mmHg 62%
    07:00 +13°C° 0 mm 1 mps 715 mmHg 61%
    08:00 +13°C° 0 mm 1 mps 715 mmHg 62%
    09:00 +14°C° 0 mm 1 mps 716 mmHg 62%
    10:00 +14°C° 0 mm 1 mps 716 mmHg 62%
    11:00 +15°C° 0 mm 1 mps 716 mmHg 64%
    12:00 +15°C° 0 mm 1 mps 715 mmHg 66%
    13:00 +15°C° 0 mm 1 mps 715 mmHg 68%
    14:00 +15°C° 0 mm 1 mps 715 mmHg 70%
    15:00 +15°C° 0 mm 1 mps 715 mmHg 72%
    16:00 +15°C° 0 mm 1 mps 715 mmHg 73%
    17:00 +14°C° 0 mm 1 mps 714 mmHg 74%
    18:00 +14°C° 0 mm 1 mps 714 mmHg 75%
    19:00 +13°C° 0 mm 1 mps 714 mmHg 77%
    20:00 +13°C° 0 mm 1 mps 714 mmHg 77%
    21:00 +13°C° 0 mm 1 mps 714 mmHg 78%
    22:00 +12°C° 0 mm 1 mps 714 mmHg 79%
    23:00 +12°C° 0 mm 1 mps 714 mmHg 80%

    24 September, Tuesday

    Time Temperature Precipitation Wind Pressure Humidity
    00:00 +12°C° 0 mm 1 mps 714 mmHg 81%
    01:00 +11°C° 0 mm 1 mps 714 mmHg 83%
    02:00 +11°C° 0 mm 1 mps 714 mmHg 83%
    03:00 +10°C° 0 mm 0 mps 714 mmHg 84%
    04:00 +10°C° 0 mm 0 mps 714 mmHg 84%
    05:00 +10°C° 0 mm 0 mps 714 mmHg 83%
    06:00 +11°C° 0 mm 0 mps 714 mmHg 82%
    07:00 +11°C° 0 mm 0 mps 714 mmHg 81%
    08:00 +12°C° 0 mm 0 mps 714 mmHg 79%
    09:00 +13°C° 0 mm 0 mps 714 mmHg 76%
    10:00 +13°C° 0 mm 0 mps 714 mmHg 74%
    11:00 +13°C° 0 mm 0 mps 714 mmHg 75%
    12:00 +14°C° 0 mm 1 mps 714 mmHg 76%
    13:00 +15°C° 0 mm 1 mps 714 mmHg 76%
    14:00 +13°C° 0 mm 0 mps 714 mmHg 78%
    15:00 +13°C° 0 mm 0 mps 714 mmHg 80%
    16:00 +13°C° 0 mm 0 mps 714 mmHg 82%
    17:00 +12°C° 0 mm 0 mps 714 mmHg 84%
    18:00 +11°C° 0 mm 0 mps 714 mmHg 87%
    19:00 +11°C° 0 mm 1 mps 714 mmHg 89%
    20:00 +10°C° 0 mm 0 mps 714 mmHg 90%
    21:00 +9°C° 0 mm 0 mps 714 mmHg 91%
    22:00 +9°C° 0 mm 0 mps 714 mmHg 91%
    23:00 +9°C° 0 mm 0 mps 714 mmHg 92%

    25 September, Wednesday

    Time Temperature Precipitation Wind Pressure Humidity
    00:00 +9°C° 0 mm 0 mps 714 mmHg 92%
    01:00 +8°C° 0 mm 0 mps 714 mmHg 93%
    02:00 +8°C° 0 mm 0 mps 714 mmHg 93%
    03:00 +8°C° 0 mm 0 mps 713 mmHg 93%
    04:00 +8°C° 0 mm 0 mps 713 mmHg 93%
    05:00 +9°C° 0 mm 0 mps 713 mmHg 91%
    06:00 +9°C° 0 mm 0 mps 714 mmHg 89%
    07:00 +10°C° 0 mm 0 mps 714 mmHg 86%
    08:00 +13°C° 0 mm 1 mps 714 mmHg 80%
    09:00 +15°C° 0 mm 1 mps 714 mmHg 73%
    10:00 +18°C° 0 mm 1 mps 714 mmHg 66%
    11:00 +19°C° 0 mm 1 mps 714 mmHg 64%
    12:00 +19°C° 0 mm 1 mps 714 mmHg 62%
    13:00 +20°C° 0 mm 1 mps 714 mmHg 60%
    14:00 +19°C° 0.1 mm 1 mps 714 mmHg 65%
    15:00 +19°C° 0.1 mm 1 mps 713 mmHg 71%
    16:00 +16°C° 0.1 mm 0 mps 713 mmHg 76%
    17:00 +16°C° 0.1 mm 1 mps 713 mmHg 80%
    18:00 +15°C° 0.1 mm 1 mps 713 mmHg 84%
    19:00 +14°C° 0.1 mm 1 mps 713 mmHg 88%
    20:00 +14°C° 0.1 mm 1 mps 713 mmHg 88%
    21:00 +14°C° 0.1 mm 1 mps 714 mmHg 88%
    22:00 +14°C° 0.1 mm 1 mps 714 mmHg 88%
    23:00 +13°C° 0.1 mm 1 mps 714 mmHg 88%
    Show more